When you browse on this site, cookies collect data to enhance your experience and personalize the content and advertising you see.
Visit our Privacy Policy to learn more. By continuing to use the site, you agree to this use of cookies and data.
  • în România
  • Lista ţărilor
  • Pe 7 zile
  • Temperatura apei
  • Meteo pe hartă
  • Widget-uri
  • user-avatar
    Intrare

    Meteo pe oră la Folkern

    Astăzi, 23 Octombrie, Miercuri

    Timp Temperatura Precipitaţii Vânt Presiune Umiditate
    00:00 +10°C° 0.5 mm 14 m/s 754 mmHg 91%
    01:00 +10°C° 0.9 mm 14 m/s 753 mmHg 92%
    02:00 +10°C° 0.9 mm 14 m/s 753 mmHg 92%
    03:00 +10°C° 0.9 mm 14 m/s 752 mmHg 93%
    04:00 +10°C° 1.2 mm 14 m/s 752 mmHg 92%
    05:00 +9°C° 1.2 mm 14 m/s 751 mmHg 91%
    06:00 +9°C° 1.2 mm 14 m/s 751 mmHg 89%
    07:00 +9°C° 1 mm 14 m/s 750 mmHg 89%
    08:00 +9°C° 1 mm 15 m/s 750 mmHg 90%
    09:00 +9°C° 1 mm 15 m/s 750 mmHg 90%
    10:00 +9°C° 1.6 mm 15 m/s 749 mmHg 89%
    11:00 +8°C° 1.6 mm 15 m/s 748 mmHg 89%
    12:00 +8°C° 1.6 mm 15 m/s 748 mmHg 89%
    13:00 +9°C° 2.4 mm 15 m/s 747 mmHg 89%
    14:00 +9°C° 2.4 mm 16 m/s 746 mmHg 89%
    15:00 +9°C° 2.4 mm 16 m/s 745 mmHg 89%
    16:00 +9°C° 1.8 mm 16 m/s 745 mmHg 89%
    17:00 +9°C° 1.8 mm 15 m/s 744 mmHg 90%
    18:00 +9°C° 1.8 mm 15 m/s 744 mmHg 91%
    19:00 +9°C° 0.4 mm 14 m/s 744 mmHg 88%
    20:00 +9°C° 0.4 mm 12 m/s 744 mmHg 85%
    21:00 +9°C° 0.4 mm 11 m/s 744 mmHg 83%
    22:00 +9°C° 0.2 mm 12 m/s 744 mmHg 83%
    23:00 +9°C° 0.2 mm 12 m/s 744 mmHg 83%

    Mâine, 24 Octombrie, Joi

    Timp Temperatura Precipitaţii Vânt Presiune Umiditate
    00:00 +9°C° 0.2 mm 13 m/s 744 mmHg 83%
    01:00 +9°C° 0.2 mm 13 m/s 743 mmHg 82%
    02:00 +9°C° 0.2 mm 14 m/s 743 mmHg 81%
    03:00 +9°C° 0.2 mm 14 m/s 742 mmHg 81%
    04:00 +9°C° 0.1 mm 15 m/s 741 mmHg 80%
    05:00 +9°C° 0.1 mm 15 m/s 741 mmHg 80%
    06:00 +9°C° 0.1 mm 16 m/s 740 mmHg 79%
    07:00 +9°C° 0.2 mm 16 m/s 740 mmHg 79%
    08:00 +8°C° 0.2 mm 15 m/s 740 mmHg 78%
    09:00 +8°C° 0.2 mm 15 m/s 740 mmHg 77%
    10:00 +6°C° 0.1 mm 16 m/s 740 mmHg 74%
    11:00 +6°C° 0.1 mm 17 m/s 740 mmHg 71%
    12:00 +6°C° 0.1 mm 18 m/s 740 mmHg 68%
    13:00 +5°C° 0.3 mm 19 m/s 740 mmHg 71%
    14:00 +4°C° 0.3 mm 20 m/s 740 mmHg 74%
    15:00 +3°C° 0.3 mm 21 m/s 740 mmHg 77%
    16:00 +3°C° 0.5 mm 19 m/s 741 mmHg 78%
    17:00 +3°C° 0.5 mm 18 m/s 742 mmHg 79%
    18:00 +4°C° 0.5 mm 16 m/s 742 mmHg 80%
    19:00 +4°C° 0.4 mm 16 m/s 743 mmHg 78%
    20:00 +3°C° 0.4 mm 17 m/s 744 mmHg 77%
    21:00 +3°C° 0.4 mm 17 m/s 746 mmHg 75%
    22:00 +3°C° 0.1 mm 17 m/s 746 mmHg 71%
    23:00 +3°C° 0.1 mm 17 m/s 747 mmHg 67%

    Poimâine, 25 Octombrie, Vineri

    Timp Temperatura Precipitaţii Vânt Presiune Umiditate
    00:00 +3°C° 0.1 mm 17 m/s 747 mmHg 63%
    01:00 +2°C° 0.1 mm 16 m/s 747 mmHg 62%
    02:00 +2°C° 0.1 mm 16 m/s 748 mmHg 62%
    03:00 +2°C° 0.1 mm 16 m/s 748 mmHg 61%
    04:00 +2°C° 0.1 mm 16 m/s 748 mmHg 61%
    05:00 +1°C° 0.1 mm 16 m/s 748 mmHg 61%
    06:00 +1°C° 0.1 mm 15 m/s 748 mmHg 61%
    07:00 +2°C° 0 mm 15 m/s 748 mmHg 61%
    08:00 +3°C° 0 mm 14 m/s 748 mmHg 62%
    09:00 +3°C° 0 mm 13 m/s 748 mmHg 62%
    10:00 +3°C° 0.2 mm 13 m/s 749 mmHg 64%
    11:00 +3°C° 0.2 mm 13 m/s 749 mmHg 66%
    12:00 +3°C° 0.2 mm 13 m/s 749 mmHg 68%
    13:00 +3°C° 0.9 mm 11 m/s 748 mmHg 75%
    14:00 +2°C° 0.9 mm 9 m/s 748 mmHg 82%
    15:00 +2°C° 0.9 mm 8 m/s 748 mmHg 89%
    16:00 +2°C° 0.3 mm 9 m/s 747 mmHg 82%
    17:00 +3°C° 0.3 mm 10 m/s 747 mmHg 76%
    18:00 +3°C° 0.3 mm 12 m/s 747 mmHg 69%
    19:00 +3°C° 0.1 mm 13 m/s 747 mmHg 67%
    20:00 +3°C° 0.1 mm 14 m/s 747 mmHg 65%
    21:00 +2°C° 0.1 mm 15 m/s 747 mmHg 62%
    22:00 +3°C° 0 mm 17 m/s 747 mmHg 61%
    23:00 +3°C° 0 mm 18 m/s 747 mmHg 60%

    26 Octombrie, Sâmbătă

    Timp Temperatura Precipitaţii Vânt Presiune Umiditate
    00:00 +3°C° 0 mm 19 m/s 747 mmHg 58%
    01:00 +3°C° 0 mm 19 m/s 747 mmHg 58%
    02:00 +3°C° 0 mm 20 m/s 747 mmHg 58%
    03:00 +3°C° 0 mm 20 m/s 747 mmHg 58%
    04:00 +3°C° 0 mm 20 m/s 747 mmHg 61%
    05:00 +3°C° 0 mm 20 m/s 747 mmHg 65%
    06:00 +3°C° 0 mm 20 m/s 747 mmHg 69%
    07:00 +3°C° 0.2 mm 20 m/s 747 mmHg 70%
    08:00 +4°C° 0.2 mm 20 m/s 747 mmHg 72%
    09:00 +4°C° 0.2 mm 20 m/s 747 mmHg 74%
    10:00 +5°C° 0.9 mm 18 m/s 748 mmHg 79%
    11:00 +5°C° 0.9 mm 17 m/s 748 mmHg 84%
    12:00 +5°C° 0.9 mm 15 m/s 748 mmHg 88%
    13:00 +5°C° 0.6 mm 15 m/s 749 mmHg 86%
    14:00 +5°C° 0.6 mm 15 m/s 750 mmHg 83%
    15:00 +6°C° 0.6 mm 16 m/s 750 mmHg 80%
    16:00 +6°C° 0.3 mm 15 m/s 752 mmHg 79%
    17:00 +6°C° 0.3 mm 15 m/s 753 mmHg 79%
    18:00 +6°C° 0.3 mm 14 m/s 754 mmHg 78%
    19:00 +5°C° 0.2 mm 14 m/s 755 mmHg 77%
    20:00 +5°C° 0.2 mm 13 m/s 757 mmHg 76%
    21:00 +5°C° 0.2 mm 12 m/s 758 mmHg 75%
    22:00 +5°C° 0.1 mm 12 m/s 759 mmHg 74%
    23:00 +6°C° 0.1 mm 11 m/s 760 mmHg 73%

    27 Octombrie, Duminică

    Timp Temperatura Precipitaţii Vânt Presiune Umiditate
    00:00 +6°C° 0.1 mm 11 m/s 760 mmHg 72%
    01:00 +5°C° 0 mm 10 m/s 761 mmHg 72%
    02:00 +5°C° 0 mm 10 m/s 762 mmHg 71%
    03:00 +5°C° 0 mm 9 m/s 762 mmHg 70%
    04:00 +5°C° 0 mm 8 m/s 763 mmHg 70%
    05:00 +5°C° 0 mm 8 m/s 763 mmHg 70%
    06:00 +4°C° 0 mm 7 m/s 764 mmHg 70%
    07:00 +5°C° 0 mm 7 m/s 764 mmHg 69%
    08:00 +5°C° 0 mm 6 m/s 765 mmHg 68%
    09:00 +5°C° 0 mm 6 m/s 766 mmHg 67%
    10:00 +6°C° 0 mm 5 m/s 766 mmHg 66%
    11:00 +6°C° 0 mm 5 m/s 766 mmHg 65%
    12:00 +7°C° 0 mm 4 m/s 767 mmHg 65%
    13:00 +7°C° 0 mm 4 m/s 767 mmHg 64%
    14:00 +8°C° 0 mm 3 m/s 767 mmHg 63%
    15:00 +8°C° 0 mm 3 m/s 767 mmHg 62%
    16:00 +7°C° 0 mm 3 m/s 767 mmHg 64%
    17:00 +5°C° 0 mm 3 m/s 767 mmHg 65%
    18:00 +5°C° 0 mm 3 m/s 767 mmHg 66%
    19:00 +4°C° 0 mm 3 m/s 768 mmHg 67%
    20:00 +4°C° 0 mm 3 m/s 768 mmHg 68%
    21:00 +4°C° 0 mm 3 m/s 768 mmHg 68%
    22:00 +4°C° 0 mm 3 m/s 768 mmHg 69%
    23:00 +4°C° 0 mm 3 m/s 768 mmHg 69%

    28 Octombrie, Luni

    Timp Temperatura Precipitaţii Vânt Presiune Umiditate
    00:00 +4°C° 0 mm 3 m/s 769 mmHg 70%
    01:00 +3°C° 0 mm 4 m/s 769 mmHg 70%
    02:00 +3°C° 0 mm 4 m/s 769 mmHg 70%
    03:00 +3°C° 0 mm 4 m/s 769 mmHg 70%
    04:00 +3°C° 0 mm 4 m/s 769 mmHg 71%
    05:00 +3°C° 0 mm 4 m/s 769 mmHg 72%
    06:00 +2°C° 0 mm 5 m/s 769 mmHg 73%
    07:00 +2°C° 0 mm 5 m/s 769 mmHg 73%
    08:00 +3°C° 0 mm 5 m/s 769 mmHg 72%
    09:00 +3°C° 0 mm 6 m/s 769 mmHg 72%
    10:00 +4°C° 0 mm 6 m/s 769 mmHg 70%
    11:00 +4°C° 0 mm 6 m/s 769 mmHg 67%
    12:00 +5°C° 0 mm 7 m/s 770 mmHg 65%
    13:00 +5°C° 0 mm 7 m/s 769 mmHg 65%
    14:00 +5°C° 0 mm 7 m/s 769 mmHg 65%
    15:00 +5°C° 0 mm 7 m/s 769 mmHg 65%
    16:00 +4°C° 0 mm 8 m/s 769 mmHg 68%
    17:00 +2°C° 0 mm 8 m/s 769 mmHg 70%
    18:00 +1°C° 0 mm 8 m/s 769 mmHg 73%
    19:00 +1°C° 0 mm 8 m/s 770 mmHg 73%
    20:00 +1°C° 0 mm 8 m/s 770 mmHg 72%
    21:00 +1°C° 0 mm 8 m/s 770 mmHg 72%
    22:00 +1°C° 0 mm 8 m/s 770 mmHg 72%
    23:00 +1°C° 0 mm 8 m/s 770 mmHg 73%

    29 Octombrie, Marţi

    Timp Temperatura Precipitaţii Vânt Presiune Umiditate
    00:00 +2°C° 0 mm 7 m/s 770 mmHg 73%
    01:00 0°C° 0 mm 7 m/s 769 mmHg 74%
    02:00 0°C° 0 mm 7 m/s 769 mmHg 76%
    03:00 0°C° 0 mm 7 m/s 769 mmHg 77%
    04:00 0°C° 0 mm 7 m/s 769 mmHg 79%
    05:00 0°C° 0 mm 7 m/s 769 mmHg 80%
    06:00 0°C° 0 mm 7 m/s 769 mmHg 82%
    07:00 0°C° 0 mm 7 m/s 769 mmHg 80%
    08:00 +2°C° 0 mm 7 m/s 770 mmHg 77%
    09:00 +2°C° 0 mm 7 m/s 770 mmHg 75%
    10:00 +3°C° 0 mm 7 m/s 770 mmHg 71%
    11:00 +4°C° 0 mm 7 m/s 770 mmHg 67%
    12:00 +5°C° 0 mm 7 m/s 770 mmHg 63%
    13:00 +5°C° 0 mm 7 m/s 770 mmHg 64%
    14:00 +5°C° 0 mm 7 m/s 770 mmHg 64%
    15:00 +5°C° 0 mm 7 m/s 770 mmHg 64%
    16:00 +4°C° 0 mm 7 m/s 770 mmHg 66%
    17:00 +3°C° 0 mm 7 m/s 770 mmHg 69%
    18:00 +2°C° 0 mm 7 m/s 770 mmHg 71%
    19:00 +1°C° 0 mm 8 m/s 770 mmHg 72%
    20:00 +1°C° 0 mm 8 m/s 770 mmHg 74%
    21:00 +1°C° 0 mm 9 m/s 770 mmHg 75%
    22:00 +1°C° 0 mm 10 m/s 770 mmHg 75%
    23:00 +1°C° 0 mm 10 m/s 770 mmHg 76%
    Arată mai mult